| time (UTC) | temp F | wind direction | speed MPH | gust MPH | rain 1hr in | rain 24hr in | rain mn in | humidity % | barometer mb |
| 20260509213535 | 91 | 140 | 6.0 | 12.0 | 0.00 | 0.00 | 0.00 | 49 | 1011.0 |
| 20260509213046 | 91 | 123 | 7.0 | 12.0 | 0.00 | 0.00 | 0.00 | 48 | 1010.9 |
| 20260509212538 | 91 | 135 | 6.0 | 12.0 | 0.00 | 0.00 | 0.00 | 49 | 1011.0 |
| 20260509212034 | 92 | 121 | 6.0 | 12.0 | 0.00 | 0.00 | 0.00 | 49 | 1011.0 |
| 20260509211548 | 91 | 153 | 6.0 | 14.0 | 0.00 | 0.00 | 0.00 | 49 | 1010.9 |
| 20260509211035 | 92 | 155 | 6.0 | 14.0 | 0.00 | 0.00 | 0.00 | 47 | 1011.0 |
| 20260509210536 | 91 | 173 | 8.0 | 15.0 | 0.00 | 0.00 | 0.00 | 49 | 1011.0 |
| 20260509210048 | 91 | 157 | 7.0 | 15.0 | 0.00 | 0.00 | 0.00 | 49 | 1011.0 |
| 20260509205537 | 91 | 155 | 7.0 | 14.0 | 0.00 | 0.00 | 0.00 | 48 | 1011.1 |
| 20260509205035 | 91 | 143 | 7.0 | 14.0 | 0.00 | 0.00 | 0.00 | 48 | 1011.0 |
| 20260509204543 | 91 | 132 | 7.0 | 14.0 | 0.00 | 0.00 | 0.00 | 47 | 1011.1 |
| 20260509204035 | 91 | 167 | 8.0 | 14.0 | 0.00 | 0.00 | 0.00 | 45 | 1011.1 |
| 20260509203534 | 91 | 153 | 6.0 | 12.0 | 0.00 | 0.00 | 0.00 | 46 | 1011.2 |
| 20260509203046 | 91 | 116 | 7.0 | 13.0 | 0.00 | 0.00 | 0.00 | 45 | 1011.1 |
| 20260509202538 | 92 | 144 | 6.0 | 14.0 | 0.00 | 0.00 | 0.00 | 45 | 1011.3 |
| 20260509202033 | 91 | 159 | 7.0 | 14.0 | 0.00 | 0.00 | 0.00 | 43 | 1011.3 |
| 20260509201546 | 92 | 146 | 6.0 | 14.0 | 0.00 | 0.00 | 0.00 | 46 | 1011.3 |
| 20260509201033 | 91 | 172 | 7.0 | 14.0 | 0.00 | 0.00 | 0.00 | 44 | 1011.4 |
| 20260509200534 | 91 | 149 | 7.0 | 15.0 | 0.00 | 0.00 | 0.00 | 44 | 1011.4 |
| 20260509200049 | 92 | 165 | 6.0 | 15.0 | 0.00 | 0.00 | 0.00 | 44 | 1011.5 |
| 20260509195535 | 91 | 149 | 9.0 | 15.0 | 0.00 | 0.00 | 0.00 | 45 | 1011.7 |
| 20260509195034 | 91 | 161 | 7.0 | 17.0 | 0.00 | 0.00 | 0.00 | 44 | 1011.8 |
| 20260509194552 | 91 | 171 | 9.0 | 17.0 | 0.00 | 0.00 | 0.00 | 43 | 1012.0 |
| 20260509194038 | 91 | 144 | 8.0 | 18.0 | 0.00 | 0.00 | 0.00 | 46 | 1012.0 |
| 20260509193534 | 91 | 181 | 11.0 | 19.0 | 0.00 | 0.00 | 0.00 | 44 | 1012.0 |
| 20260509193044 | 91 | 149 | 10.0 | 19.0 | 0.00 | 0.00 | 0.00 | 48 | 1012.0 |
| 20260509192537 | 91 | 164 | 9.0 | 16.0 | 0.00 | 0.00 | 0.00 | 48 | 1012.0 |
| 20260509192034 | 91 | 160 | 8.0 | 18.0 | 0.00 | 0.00 | 0.00 | 50 | 1012.0 |
| 20260509191543 | 90 | 155 | 10.0 | 18.0 | 0.00 | 0.00 | 0.00 | 50 | 1012.1 |
| 20260509191038 | 91 | 165 | 9.0 | 16.0 | 0.00 | 0.00 | 0.00 | 50 | 1012.3 |
| 20260509190535 | 90 | 178 | 8.0 | 22.0 | 0.00 | 0.00 | 0.00 | 51 | 1012.2 |
| 20260509190045 | 90 | 124 | 11.0 | 22.0 | 0.00 | 0.00 | 0.00 | 52 | 1012.3 |
| 20260509185535 | 90 | 175 | 12.0 | 20.0 | 0.00 | 0.00 | 0.00 | 51 | 1012.4 |
| 20260509185033 | 90 | 150 | 10.0 | 21.0 | 0.00 | 0.00 | 0.00 | 49 | 1012.4 |
| 20260509184545 | 90 | 184 | 10.0 | 21.0 | 0.00 | 0.00 | 0.00 | 49 | 1012.6 |
| 20260509184034 | 90 | 159 | 8.0 | 18.0 | 0.00 | 0.00 | 0.00 | 50 | 1012.5 |
| 20260509183534 | 90 | 171 | 9.0 | 19.0 | 0.00 | 0.00 | 0.00 | 51 | 1012.5 |
| 20260509183100 | 90 | 161 | 10.0 | 19.0 | 0.00 | 0.00 | 0.00 | 49 | 1012.5 |
| 20260509182534 | 90 | 148 | 9.0 | 20.0 | 0.00 | 0.00 | 0.00 | 49 | 1012.5 |
| 20260509182032 | 89 | 165 | 12.0 | 20.0 | 0.00 | 0.00 | 0.00 | 49 | 1012.6 |
| 20260509181549 | 90 | 132 | 9.0 | 20.0 | 0.00 | 0.00 | 0.00 | 45 | 1012.7 |
| 20260509181032 | 90 | 155 | 11.0 | 20.0 | 0.00 | 0.00 | 0.00 | 47 | 1012.7 |
| 20260509180533 | 90 | 178 | 9.0 | 18.0 | 0.00 | 0.00 | 0.00 | 48 | 1012.8 |
| 20260509180048 | 89 | 178 | 10.0 | 18.0 | 0.00 | 0.00 | 0.00 | 46 | 1012.7 |
| 20260509175535 | 90 | 172 | 9.0 | 19.0 | 0.00 | 0.00 | 0.00 | 48 | 1012.8 |
| 20260509175033 | 89 | 161 | 10.0 | 19.0 | 0.00 | 0.00 | 0.00 | 48 | 1012.9 |
| 20260509174551 | 89 | 184 | 10.0 | 20.0 | 0.00 | 0.00 | 0.00 | 48 | 1012.9 |
| 20260509174034 | 89 | 225 | 10.0 | 20.0 | 0.00 | 0.00 | 0.00 | 47 | 1012.9 |
| 20260509173533 | 89 | 163 | 11.0 | 20.0 | 0.00 | 0.00 | 0.00 | 48 | 1012.9 |
| 20260509173057 | 89 | 153 | 7.0 | 20.0 | 0.00 | 0.00 | 0.00 | 51 | 1013.0 |
| 20260509172535 | 89 | 175 | 8.0 | 17.0 | 0.00 | 0.00 | 0.00 | 53 | 1012.9 |
| 20260509172036 | 88 | 159 | 9.0 | 21.0 | 0.00 | 0.00 | 0.00 | 50 | 1013.1 |
| 20260509171545 | 88 | 146 | 9.0 | 21.0 | 0.00 | 0.00 | 0.00 | 51 | 1013.1 |
| 20260509171035 | 88 | 164 | 8.0 | 18.0 | 0.00 | 0.00 | 0.00 | 52 | 1013.2 |
| 20260509170534 | 88 | 177 | 10.0 | 21.0 | 0.00 | 0.00 | 0.00 | 54 | 1013.3 |
| 20260509170049 | 88 | 142 | 9.0 | 21.0 | 0.00 | 0.00 | 0.00 | 54 | 1013.3 |
| 20260509165535 | 88 | 171 | 10.0 | 20.0 | 0.00 | 0.00 | 0.00 | 54 | 1013.3 |
| 20260509165034 | 88 | 159 | 10.0 | 19.0 | 0.00 | 0.00 | 0.00 | 53 | 1013.4 |
| 20260509164546 | 88 | 161 | 9.0 | 17.0 | 0.00 | 0.00 | 0.00 | 54 | 1013.5 |
| 20260509164033 | 88 | 183 | 7.0 | 17.0 | 0.00 | 0.00 | 0.00 | 56 | 1013.6 |
| 20260509163535 | 88 | 186 | 8.0 | 17.0 | 0.00 | 0.00 | 0.00 | 54 | 1013.6 |
| 20260509163051 | 88 | 165 | 7.0 | 17.0 | 0.00 | 0.00 | 0.00 | 55 | 1013.7 |
| 20260509162535 | 88 | 159 | 9.0 | 17.0 | 0.00 | 0.00 | 0.00 | 54 | 1013.7 |
| 20260509162036 | 87 | 150 | 7.0 | 17.0 | 0.00 | 0.00 | 0.00 | 56 | 1013.8 |
| 20260509161550 | 87 | 144 | 9.0 | 16.0 | 0.00 | 0.00 | 0.00 | 55 | 1013.9 |
| 20260509161034 | 87 | 164 | 10.0 | 16.0 | 0.00 | 0.00 | 0.00 | 58 | 1014.1 |
| 20260509160534 | 87 | 171 | 5.0 | 17.0 | 0.00 | 0.00 | 0.00 | 60 | 1014.1 |
| 20260509160054 | 86 | 186 | 10.0 | 17.0 | 0.00 | 0.00 | 0.00 | 58 | 1014.1 |
| 20260509155534 | 86 | 152 | 7.0 | 19.0 | 0.00 | 0.00 | 0.00 | 60 | 1014.2 |
| 20260509155034 | 86 | 145 | 9.0 | 19.0 | 0.00 | 0.00 | 0.00 | 58 | 1014.5 |
| 20260509154551 | 86 | 190 | 5.0 | 16.0 | 0.00 | 0.00 | 0.00 | 61 | 1014.5 |
| 20260509154035 | 86 | 202 | 4.0 | 16.0 | 0.00 | 0.00 | 0.00 | 63 | 1014.5 |
| 20260509153533 | 85 | 150 | 8.0 | 18.0 | 0.00 | 0.00 | 0.00 | 60 | 1014.5 |
| 20260509153054 | 85 | 165 | 9.0 | 18.0 | 0.00 | 0.00 | 0.00 | 62 | 1014.4 |
| 20260509152534 | 85 | 164 | 11.0 | 16.0 | 0.00 | 0.00 | 0.00 | 61 | 1014.5 |
| 20260509152034 | 85 | 205 | 9.0 | 16.0 | 0.00 | 0.00 | 0.00 | 63 | 1014.5 |
| 20260509151553 | 85 | 207 | 10.0 | 16.0 | 0.00 | 0.00 | 0.00 | 61 | 1014.6 |
| 20260509151035 | 85 | 185 | 9.0 | 15.0 | 0.00 | 0.00 | 0.00 | 64 | 1014.6 |
| 20260509150536 | 84 | 175 | 9.0 | 16.0 | 0.00 | 0.00 | 0.00 | 64 | 1014.6 |
| 20260509150045 | 84 | 179 | 9.0 | 16.0 | 0.00 | 0.00 | 0.00 | 64 | 1014.6 |
| 20260509145534 | 84 | 189 | 7.0 | 14.0 | 0.00 | 0.00 | 0.00 | 66 | 1014.6 |
| 20260509145037 | 84 | 178 | 8.0 | 15.0 | 0.00 | 0.00 | 0.00 | 67 | 1014.6 |
| 20260509144550 | 84 | 144 | 7.0 | 17.0 | 0.00 | 0.00 | 0.00 | 66 | 1014.6 |
| 20260509144034 | 84 | 150 | 10.0 | 17.0 | 0.00 | 0.00 | 0.00 | 67 | 1014.7 |
| 20260509143535 | 84 | 142 | 6.0 | 12.0 | 0.00 | 0.00 | 0.00 | 70 | 1014.6 |
| 20260509143055 | 83 | 158 | 7.0 | 12.0 | 0.00 | 0.00 | 0.00 | 70 | 1014.6 |
| 20260509142535 | 83 | 166 | 6.0 | 13.0 | 0.00 | 0.00 | 0.00 | 71 | 1014.5 |
| 20260509142036 | 83 | 141 | 6.0 | 15.0 | 0.00 | 0.00 | 0.00 | 71 | 1014.5 |
| 20260509141552 | 83 | 173 | 7.0 | 15.0 | 0.00 | 0.00 | 0.00 | 70 | 1014.5 |
| 20260509141034 | 82 | 151 | 4.0 | 14.0 | 0.00 | 0.00 | 0.00 | 71 | 1014.5 |
| 20260509140533 | 82 | 159 | 6.0 | 13.0 | 0.00 | 0.00 | 0.00 | 74 | 1014.5 |
| 20260509140058 | 81 | 155 | 5.0 | 13.0 | 0.00 | 0.00 | 0.00 | 75 | 1014.5 |
| 20260509135536 | 81 | 170 | 5.0 | 11.0 | 0.00 | 0.00 | 0.00 | 77 | 1014.7 |
| 20260509135038 | 80 | 166 | 4.0 | 9.0 | 0.00 | 0.00 | 0.00 | 79 | 1014.6 |
| 20260509134542 | 79 | 171 | 5.0 | 9.0 | 0.00 | 0.00 | 0.00 | 80 | 1014.6 |
| 20260509134035 | 79 | 197 | 5.0 | 9.0 | 0.00 | 0.00 | 0.00 | 82 | 1014.6 |
| 20260509133535 | 78 | 165 | 5.0 | 9.0 | 0.00 | 0.00 | 0.00 | 84 | 1014.6 |
| 20260509133045 | 78 | 125 | 4.0 | 9.0 | 0.00 | 0.00 | 0.00 | 85 | 1014.5 |
| 20260509132535 | 77 | 123 | 3.0 | 9.0 | 0.00 | 0.00 | 0.00 | 86 | 1014.6 |
| 20260509132034 | 77 | 196 | 3.0 | 9.0 | 0.00 | 0.00 | 0.00 | 88 | 1014.5 |
| 20260509131542 | 77 | 175 | 4.0 | 9.0 | 0.00 | 0.00 | 0.00 | 90 | 1014.6 |
| 20260509131034 | 76 | 175 | 1.0 | 5.0 | 0.00 | 0.00 | 0.00 | 92 | 1014.5 |
| 20260509130534 | 76 | 180 | 0.0 | 6.0 | 0.00 | 0.00 | 0.00 | 93 | 1014.4 |
| 20260509130044 | 75 | 130 | 2.0 | 6.0 | 0.00 | 0.00 | 0.00 | 94 | 1014.3 |
| 20260509125533 | 75 | 118 | 0.0 | 4.0 | 0.00 | 0.00 | 0.00 | 94 | 1014.4 |
| 20260509125035 | 74 | 196 | 0.0 | 5.0 | 0.00 | 0.00 | 0.00 | 94 | 1014.3 |
| 20260509124548 | 74 | 240 | 0.0 | 5.0 | 0.00 | 0.00 | 0.00 | 95 | 1014.3 |
| 20260509124035 | 73 | 142 | 2.0 | 5.0 | 0.00 | 0.00 | 0.00 | 95 | 1014.3 |
| 20260509123535 | 73 | 162 | 2.0 | 5.0 | 0.00 | 0.00 | 0.00 | 95 | 1014.2 |
| 20260509123056 | 72 | 173 | 2.0 | 5.0 | 0.00 | 0.00 | 0.00 | 95 | 1014.1 |
| 20260509122534 | 72 | 123 | 2.0 | 4.0 | 0.00 | 0.00 | 0.00 | 95 | 1014.0 |
| 20260509122034 | 72 | 118 | 2.0 | 4.0 | 0.00 | 0.00 | 0.00 | 95 | 1014.0 |
| 20260509121543 | 72 | 155 | 1.0 | 5.0 | 0.00 | 0.00 | 0.00 | 95 | 1013.8 |
| 20260509121035 | 71 | 155 | 1.0 | 5.0 | 0.00 | 0.00 | 0.00 | 95 | 1013.9 |
| 20260509120533 | 71 | 180 | 0.0 | 1.0 | 0.00 | 0.00 | 0.00 | 95 | 1013.9 |
| 20260509120045 | 71 | 0 | 0.0 | 0.0 | 0.00 | 0.00 | 0.00 | 95 | 1014.0 |
| 20260509115535 | 71 | 0 | 0.0 | 1.0 | 0.00 | 0.00 | 0.00 | 95 | 1013.9 |
| 20260509115034 | 70 | 0 | 0.0 | 1.0 | 0.00 | 0.00 | 0.00 | 95 | 1013.8 |
| 20260509114550 | 70 | 0 | 0.0 | 1.0 | 0.00 | 0.00 | 0.00 | 95 | 1013.8 |
| 20260509114056 | 70 | 0 | 0.0 | 0.0 | 0.00 | 0.00 | 0.00 | 95 | 1013.6 |
| 20260509113537 | 69 | 0 | 0.0 | 0.0 | 0.00 | 0.00 | 0.00 | 95 | 1013.5 |
| 20260509113047 | 68 | 0 | 0.0 | 0.0 | 0.00 | 0.00 | 0.00 | 95 | 1013.5 |
| 20260509112534 | 67 | 0 | 0.0 | 0.0 | 0.00 | 0.00 | 0.00 | 94 | 1013.5 |
| 20260509112035 | 67 | 0 | 0.0 | 0.0 | 0.00 | 0.00 | 0.00 | 94 | 1013.5 |
| 20260509111546 | 67 | 0 | 0.0 | 0.0 | 0.00 | 0.00 | 0.00 | 95 | 1013.4 |
| 20260509111035 | 67 | 0 | 0.0 | 0.0 | 0.00 | 0.00 | 0.00 | 94 | 1013.5 |
| 20260509110534 | 67 | 0 | 0.0 | 0.0 | 0.00 | 0.00 | 0.00 | 94 | 1013.5 |
| 20260509110045 | 67 | 0 | 0.0 | 0.0 | 0.00 | 0.00 | 0.00 | 94 | 1013.5 |
| 20260509105534 | 66 | 0 | 0.0 | 0.0 | 0.00 | 0.00 | 0.00 | 94 | 1013.5 |
| 20260509105035 | 67 | 0 | 0.0 | 0.0 | 0.00 | 0.00 | 0.00 | 94 | 1013.4 |
| 20260509104543 | 67 | 0 | 0.0 | 0.0 | 0.00 | 0.00 | 0.00 | 94 | 1013.6 |
| 20260509104037 | 67 | 0 | 0.0 | 0.0 | 0.00 | 0.00 | 0.00 | 94 | 1013.6 |
| 20260509103534 | 67 | 0 | 0.0 | 3.0 | 0.00 | 0.00 | 0.00 | 93 | 1013.5 |
| 20260509103050 | 67 | 0 | 0.0 | 4.0 | 0.00 | 0.00 | 0.00 | 94 | 1013.4 |
| 20260509102534 | 67 | 304 | 2.0 | 4.0 | 0.00 | 0.00 | 0.00 | 93 | 1013.5 |
| 20260509102035 | 68 | 126 | 1.0 | 2.0 | 0.00 | 0.00 | 0.00 | 94 | 1013.3 |
| 20260509101551 | 68 | 126 | 1.0 | 2.0 | 0.00 | 0.00 | 0.00 | 94 | 1013.3 |
| 20260509101037 | 68 | 0 | 0.0 | 0.0 | 0.00 | 0.00 | 0.00 | 94 | 1013.2 |
| 20260509100534 | 68 | 0 | 0.0 | 0.0 | 0.00 | 0.00 | 0.00 | 94 | 1013.2 |
| 20260509100049 | 68 | 0 | 0.0 | 1.0 | 0.00 | 0.00 | 0.00 | 94 | 1013.2 |
| 20260509095534 | 68 | 0 | 0.0 | 1.0 | 0.00 | 0.00 | 0.00 | 94 | 1013.2 |
| 20260509095036 | 68 | 0 | 0.0 | 2.0 | 0.00 | 0.00 | 0.00 | 94 | 1013.1 |
| 20260509094548 | 68 | 0 | 0.0 | 3.0 | 0.00 | 0.00 | 0.00 | 94 | 1013.2 |
| 20260509094033 | 69 | 0 | 0.0 | 3.0 | 0.00 | 0.00 | 0.00 | 94 | 1013.2 |
| 20260509093534 | 68 | 5 | 0.0 | 0.0 | 0.00 | 0.00 | 0.00 | 94 | 1013.3 |
| 20260509093047 | 68 | 0 | 0.0 | 0.0 | 0.00 | 0.00 | 0.00 | 94 | 1013.2 |
| 20260509092534 | 68 | 0 | 0.0 | 2.0 | 0.00 | 0.00 | 0.00 | 94 | 1013.2 |
| 20260509092034 | 68 | 0 | 0.0 | 2.0 | 0.00 | 0.00 | 0.00 | 94 | 1013.2 |
| 20260509091541 | 69 | 5 | 1.0 | 2.0 | 0.00 | 0.00 | 0.00 | 93 | 1013.3 |
| 20260509091036 | 69 | 0 | 0.0 | 2.0 | 0.00 | 0.00 | 0.00 | 93 | 1013.2 |
| 20260509090534 | 69 | 5 | 1.0 | 3.0 | 0.00 | 0.00 | 0.00 | 94 | 1013.2 |
| 20260509090054 | 69 | 5 | 1.0 | 3.0 | 0.00 | 0.00 | 0.00 | 94 | 1013.3 |
| 20260509085534 | 69 | 5 | 1.0 | 2.0 | 0.00 | 0.00 | 0.00 | 94 | 1013.3 |
| 20260509085034 | 69 | 5 | 1.0 | 3.0 | 0.00 | 0.00 | 0.00 | 93 | 1013.3 |
| 20260509084548 | 69 | 5 | 1.0 | 3.0 | 0.00 | 0.00 | 0.00 | 93 | 1013.3 |
| 20260509084034 | 69 | 278 | 1.0 | 2.0 | 0.00 | 0.00 | 0.00 | 93 | 1013.4 |
| 20260509083533 | 69 | 278 | 0.0 | 2.0 | 0.00 | 0.00 | 0.00 | 93 | 1013.4 |
| 20260509083051 | 69 | 0 | 0.0 | 1.0 | 0.00 | 0.00 | 0.00 | 93 | 1013.4 |
| 20260509082533 | 69 | 0 | 0.0 | 2.0 | 0.00 | 0.00 | 0.00 | 93 | 1013.4 |
| 20260509082037 | 69 | 278 | 0.0 | 3.0 | 0.00 | 0.00 | 0.00 | 93 | 1013.4 |
| 20260509081550 | 69 | 278 | 1.0 | 3.0 | 0.00 | 0.00 | 0.00 | 93 | 1013.4 |
| 20260509081035 | 69 | 271 | 2.0 | 3.0 | 0.00 | 0.00 | 0.00 | 93 | 1013.3 |
| 20260509080534 | 70 | 174 | 1.0 | 4.0 | 0.00 | 0.00 | 0.00 | 93 | 1013.3 |
| 20260509080048 | 70 | 0 | 0.0 | 4.0 | 0.00 | 0.00 | 0.00 | 93 | 1013.2 |
| 20260509075534 | 70 | 171 | 0.0 | 4.0 | 0.00 | 0.00 | 0.00 | 93 | 1013.1 |
| 20260509075033 | 69 | 121 | 0.0 | 2.0 | 0.00 | 0.00 | 0.00 | 93 | 1013.1 |
| 20260509074551 | 70 | 121 | 0.0 | 2.0 | 0.00 | 0.00 | 0.00 | 93 | 1013.1 |
| 20260509074036 | 69 | 121 | 0.0 | 2.0 | 0.00 | 0.00 | 0.00 | 93 | 1013.1 |
| 20260509073534 | 69 | 121 | 0.0 | 1.0 | 0.00 | 0.00 | 0.00 | 93 | 1013.1 |
| 20260509073046 | 70 | 0 | 0.0 | 1.0 | 0.00 | 0.00 | 0.00 | 93 | 1013.2 |
| 20260509072535 | 70 | 0 | 0.0 | 0.0 | 0.00 | 0.00 | 0.00 | 93 | 1013.2 |
| 20260509072036 | 70 | 0 | 0.0 | 0.0 | 0.00 | 0.00 | 0.00 | 93 | 1013.3 |
| 20260509071607 | 70 | 0 | 0.0 | 0.0 | 0.00 | 0.00 | 0.00 | 92 | 1013.3 |
| 20260509071035 | 70 | 0 | 0.0 | 0.0 | 0.00 | 0.00 | 0.00 | 92 | 1013.3 |
| 20260509070535 | 70 | 0 | 0.0 | 0.0 | 0.00 | 0.00 | 0.00 | 92 | 1013.4 |
| 20260509070046 | 70 | 0 | 0.0 | 2.0 | 0.00 | 0.00 | 0.00 | 92 | 1013.5 |
| 20260509065537 | 70 | 0 | 0.0 | 2.0 | 0.00 | 0.00 | 0.00 | 92 | 1013.5 |
| 20260509065034 | 70 | 121 | 1.0 | 2.0 | 0.00 | 0.00 | 0.00 | 92 | 1013.5 |
| 20260509064552 | 70 | 0 | 0.0 | 2.0 | 0.00 | 0.00 | 0.00 | 92 | 1013.5 |
| 20260509064037 | 70 | 131 | 0.0 | 0.0 | 0.00 | 0.00 | 0.00 | 92 | 1013.6 |
| 20260509063535 | 70 | 0 | 0.0 | 0.0 | 0.00 | 0.00 | 0.00 | 92 | 1013.6 |
| 20260509063053 | 70 | 0 | 0.0 | 2.0 | 0.00 | 0.00 | 0.00 | 92 | 1013.6 |
| 20260509062534 | 70 | 0 | 0.0 | 3.0 | 0.00 | 0.00 | 0.00 | 92 | 1013.7 |
| 20260509062035 | 71 | 0 | 1.0 | 4.0 | 0.00 | 0.00 | 0.00 | 92 | 1013.7 |
| 20260509061553 | 71 | 147 | 1.0 | 4.0 | 0.00 | 0.00 | 0.00 | 92 | 1013.7 |
| 20260509061034 | 71 | 146 | 1.0 | 4.0 | 0.00 | 0.00 | 0.00 | 92 | 1013.8 |
| 20260509060534 | 71 | 133 | 1.0 | 3.0 | 0.00 | 0.00 | 0.00 | 92 | 1013.9 |
| 20260509060048 | 71 | 69 | 1.0 | 3.0 | 0.00 | 0.00 | 0.00 | 92 | 1013.9 |
| 20260509055534 | 71 | 0 | 0.0 | 3.0 | 0.00 | 0.00 | 0.00 | 92 | 1013.9 |
| 20260509055037 | 71 | 95 | 2.0 | 3.0 | 0.00 | 0.00 | 0.00 | 92 | 1014.0 |
| 20260509054605 | 70 | 95 | 1.0 | 2.0 | 0.00 | 0.00 | 0.00 | 92 | 1014.1 |
| 20260509054032 | 70 | 94 | 1.0 | 2.0 | 0.00 | 0.00 | 0.00 | 91 | 1014.1 |
| 20260509053535 | 70 | 94 | 1.0 | 3.0 | 0.00 | 0.00 | 0.00 | 91 | 1014.2 |
| 20260509053105 | 70 | 94 | 1.0 | 3.0 | 0.00 | 0.00 | 0.00 | 90 | 1014.2 |
| 20260509052535 | 70 | 94 | 2.0 | 3.0 | 0.00 | 0.00 | 0.00 | 90 | 1014.2 |
| 20260509052033 | 70 | 0 | 0.0 | 0.0 | 0.00 | 0.00 | 0.00 | 90 | 1014.3 |
| 20260509051555 | 71 | 0 | 0.0 | 0.0 | 0.00 | 0.00 | 0.00 | 90 | 1014.3 |
| 20260509051037 | 71 | 0 | 0.0 | 0.0 | 0.00 | 0.00 | 0.00 | 90 | 1014.3 |
| 20260509050536 | 71 | 0 | 0.0 | 2.0 | 0.00 | 0.00 | 0.00 | 90 | 1014.4 |
| 20260509050051 | 71 | 0 | 0.0 | 3.0 | 0.00 | 0.00 | 0.00 | 90 | 1014.5 |
| 20260509045533 | 71 | 94 | 1.0 | 3.0 | 0.00 | 0.00 | 0.00 | 90 | 1014.5 |
| 20260509045035 | 71 | 126 | 0.0 | 2.0 | 0.00 | 0.00 | 0.00 | 91 | 1014.6 |
| 20260509044545 | 71 | 0 | 0.0 | 3.0 | 0.00 | 0.00 | 0.00 | 91 | 1014.6 |
| 20260509044033 | 71 | 0 | 1.0 | 5.0 | 0.00 | 0.00 | 0.00 | 91 | 1014.5 |
| 20260509043532 | 71 | 145 | 1.0 | 5.0 | 0.00 | 0.00 | 0.00 | 91 | 1014.5 |
| 20260509043059 | 71 | 0 | 0.0 | 4.0 | 0.00 | 0.00 | 0.00 | 90 | 1014.6 |
| 20260509042533 | 71 | 204 | 2.0 | 4.0 | 0.00 | 0.00 | 0.00 | 90 | 1014.6 |
| 20260509042034 | 71 | 213 | 0.0 | 5.0 | 0.00 | 0.00 | 0.00 | 90 | 1014.6 |
| 20260509041551 | 71 | 164 | 1.0 | 5.0 | 0.00 | 0.00 | 0.00 | 90 | 1014.5 |
| 20260509041035 | 71 | 198 | 2.0 | 5.0 | 0.00 | 0.00 | 0.00 | 90 | 1014.6 |
| 20260509040532 | 71 | 140 | 1.0 | 4.0 | 0.00 | 0.00 | 0.00 | 89 | 1014.4 |
| 20260509040054 | 71 | 140 | 2.0 | 4.0 | 0.00 | 0.00 | 0.00 | 89 | 1014.3 |
| 20260509035534 | 71 | 157 | 2.0 | 4.0 | 0.00 | 0.00 | 0.00 | 89 | 1014.4 |
| 20260509035033 | 71 | 153 | 1.0 | 4.0 | 0.00 | 0.00 | 0.00 | 89 | 1014.4 |
| 20260509034552 | 71 | 0 | 1.0 | 3.0 | 0.00 | 0.00 | 0.00 | 89 | 1014.4 |
| 20260509034034 | 71 | 153 | 0.0 | 0.0 | 0.00 | 0.00 | 0.00 | 89 | 1014.4 |
| 20260509033535 | 71 | 0 | 0.0 | 0.0 | 0.00 | 0.00 | 0.00 | 88 | 1014.4 |
| 20260509033048 | 72 | 0 | 0.0 | 0.0 | 0.00 | 0.00 | 0.00 | 88 | 1014.4 |
| 20260509032533 | 72 | 0 | 0.0 | 0.0 | 0.00 | 0.00 | 0.00 | 88 | 1014.4 |
| 20260509032038 | 72 | 0 | 0.0 | 0.0 | 0.00 | 0.00 | 0.00 | 88 | 1014.4 |
| 20260509031615 | 72 | 0 | 0.0 | 0.0 | 0.00 | 0.00 | 0.00 | 88 | 1014.4 |
| 20260509031033 | 72 | 0 | 0.0 | 0.0 | 0.00 | 0.00 | 0.00 | 88 | 1014.4 |
| 20260509030533 | 73 | 0 | 0.0 | 0.0 | 0.00 | 0.00 | 0.00 | 87 | 1014.3 |
| 20260509030046 | 73 | 0 | 0.0 | 0.0 | 0.00 | 0.00 | 0.00 | 87 | 1014.3 |
| 20260509025532 | 73 | 0 | 0.0 | 0.0 | 0.00 | 0.00 | 0.00 | 87 | 1014.3 |
| 20260509025032 | 73 | 0 | 0.0 | 1.0 | 0.00 | 0.00 | 0.00 | 87 | 1014.3 |
| 20260509024543 | 73 | 0 | 0.0 | 2.0 | 0.00 | 0.00 | 0.00 | 86 | 1014.3 |
| 20260509024033 | 74 | 0 | 0.0 | 3.0 | 0.00 | 0.00 | 0.00 | 87 | 1014.4 |
| 20260509023536 | 74 | 94 | 0.0 | 4.0 | 0.00 | 0.00 | 0.00 | 87 | 1014.3 |
| 20260509023044 | 74 | 107 | 1.0 | 4.0 | 0.00 | 0.00 | 0.00 | 87 | 1014.2 |
| 20260509022535 | 74 | 107 | 2.0 | 4.0 | 0.00 | 0.00 | 0.00 | 87 | 1014.1 |
| 20260509022036 | 74 | 105 | 2.0 | 7.0 | 0.00 | 0.00 | 0.00 | 87 | 1014.2 |
| 20260509021544 | 74 | 77 | 2.0 | 7.0 | 0.00 | 0.00 | 0.00 | 87 | 1014.1 |
| 20260509021033 | 74 | 86 | 2.0 | 7.0 | 0.00 | 0.00 | 0.00 | 87 | 1014.1 |
| 20260509020533 | 74 | 69 | 2.0 | 6.0 | 0.00 | 0.00 | 0.00 | 87 | 1013.9 |
| 20260509020046 | 74 | 83 | 3.0 | 6.0 | 0.00 | 0.00 | 0.00 | 86 | 1014.0 |
| 20260509015533 | 74 | 74 | 3.0 | 6.0 | 0.00 | 0.00 | 0.00 | 86 | 1013.9 |
| 20260509015034 | 74 | 73 | 3.0 | 5.0 | 0.00 | 0.00 | 0.00 | 86 | 1013.9 |
| 20260509014545 | 74 | 76 | 2.0 | 4.0 | 0.00 | 0.00 | 0.00 | 86 | 1013.9 |
| 20260509014033 | 74 | 76 | 2.0 | 3.0 | 0.00 | 0.00 | 0.00 | 86 | 1013.8 |
| 20260509013533 | 74 | 81 | 1.0 | 3.0 | 0.00 | 0.00 | 0.00 | 85 | 1013.8 |
| 20260509013050 | 74 | 78 | 1.0 | 3.0 | 0.00 | 0.00 | 0.00 | 85 | 1013.9 |
| 20260509012532 | 75 | 78 | 1.0 | 3.0 | 0.00 | 0.00 | 0.00 | 85 | 1013.8 |
| 20260509012033 | 75 | 78 | 1.0 | 3.0 | 0.00 | 0.00 | 0.00 | 85 | 1013.8 |
| 20260509011548 | 75 | 78 | 1.0 | 4.0 | 0.00 | 0.00 | 0.00 | 85 | 1013.8 |
| 20260509011032 | 75 | 103 | 1.0 | 4.0 | 0.00 | 0.00 | 0.00 | 84 | 1013.7 |
| 20260509010532 | 75 | 74 | 2.0 | 5.0 | 0.00 | 0.00 | 0.00 | 85 | 1013.8 |
| 20260509010044 | 75 | 86 | 2.0 | 5.0 | 0.00 | 0.00 | 0.00 | 84 | 1013.7 |
| 20260509005536 | 75 | 65 | 2.0 | 5.0 | 0.00 | 0.00 | 0.00 | 84 | 1013.6 |
| 20260509005035 | 76 | 67 | 2.0 | 5.0 | 0.00 | 0.00 | 0.00 | 84 | 1013.6 |
| 20260509004552 | 76 | 63 | 2.0 | 5.0 | 0.00 | 0.00 | 0.00 | 83 | 1013.4 |
| 20260509004034 | 76 | 71 | 2.0 | 7.0 | 0.00 | 0.00 | 0.00 | 83 | 1013.3 |
| 20260509003535 | 76 | 71 | 4.0 | 7.0 | 0.00 | 0.00 | 0.00 | 83 | 1013.2 |
| 20260509003047 | 76 | 70 | 3.0 | 7.0 | 0.00 | 0.00 | 0.00 | 82 | 1013.0 |
| 20260509002534 | 77 | 59 | 3.0 | 7.0 | 0.00 | 0.00 | 0.00 | 82 | 1013.0 |
| 20260509002036 | 77 | 74 | 3.0 | 6.0 | 0.00 | 0.00 | 0.00 | 81 | 1012.9 |
| 20260509001545 | 77 | 72 | 3.0 | 7.0 | 0.00 | 0.00 | 0.00 | 81 | 1012.8 |
| 20260509001035 | 78 | 64 | 3.0 | 8.0 | 0.00 | 0.00 | 0.00 | 80 | 1012.7 |
| 20260509000532 | 78 | 65 | 4.0 | 9.0 | 0.00 | 0.00 | 0.00 | 79 | 1012.5 |
| 20260509000104 | 79 | 74 | 4.0 | 10.0 | 0.00 | 0.00 | 0.00 | 79 | 1012.5 |
| 20260508235538 | 79 | 78 | 5.0 | 11.0 | 0.00 | 0.00 | 0.00 | 78 | 1012.5 |
| 20260508235036 | 80 | 71 | 5.0 | 11.0 | 0.00 | 0.00 | 0.00 | 77 | 1012.4 |
| 20260508234547 | 80 | 76 | 7.0 | 11.0 | 0.00 | 0.00 | 0.00 | 77 | 1012.4 |
| 20260508234038 | 80 | 78 | 4.0 | 10.0 | 0.00 | 0.00 | 0.00 | 77 | 1012.3 |
| 20260508233534 | 80 | 69 | 6.0 | 10.0 | 0.00 | 0.00 | 0.00 | 77 | 1012.4 |
| 20260508233050 | 81 | 96 | 4.0 | 9.0 | 0.00 | 0.00 | 0.00 | 77 | 1012.2 |
| 20260508232537 | 81 | 74 | 5.0 | 11.0 | 0.00 | 0.00 | 0.00 | 77 | 1012.4 |
| 20260508232034 | 81 | 59 | 4.0 | 11.0 | 0.00 | 0.00 | 0.00 | 76 | 1012.3 |
| 20260508231555 | 81 | 76 | 5.0 | 11.0 | 0.00 | 0.00 | 0.00 | 76 | 1012.2 |
| 20260508231034 | 82 | 65 | 6.0 | 11.0 | 0.00 | 0.00 | 0.00 | 76 | 1012.2 |
| 20260508230533 | 82 | 79 | 7.0 | 11.0 | 0.00 | 0.00 | 0.00 | 75 | 1012.2 |
| 20260508230046 | 82 | 46 | 6.0 | 10.0 | 0.00 | 0.00 | 0.00 | 75 | 1012.1 |
| 20260508225535 | 82 | 50 | 5.0 | 10.0 | 0.00 | 0.00 | 0.00 | 74 | 1012.1 |
| 20260508225035 | 83 | 74 | 7.0 | 10.0 | 0.00 | 0.00 | 0.00 | 73 | 1012.0 |
| 20260508224550 | 83 | 54 | 7.0 | 10.0 | 0.00 | 0.00 | 0.00 | 73 | 1012.0 |
| 20260508224033 | 83 | 53 | 6.0 | 13.0 | 0.00 | 0.00 | 0.00 | 72 | 1012.0 |
| 20260508223533 | 83 | 91 | 6.0 | 14.0 | 0.00 | 0.00 | 0.00 | 72 | 1012.0 |
| 20260508223043 | 83 | 65 | 9.0 | 14.0 | 0.00 | 0.00 | 0.00 | 71 | 1012.0 |
| 20260508222534 | 83 | 74 | 8.0 | 11.0 | 0.00 | 0.00 | 0.00 | 71 | 1012.0 |
| 20260508222035 | 83 | 101 | 7.0 | 12.0 | 0.00 | 0.00 | 0.00 | 71 | 1012.0 |
| 20260508221544 | 83 | 64 | 7.0 | 12.0 | 0.00 | 0.00 | 0.00 | 71 | 1011.9 |
| 20260508221035 | 83 | 111 | 6.0 | 12.0 | 0.00 | 0.00 | 0.00 | 71 | 1011.9 |
| 20260508220535 | 84 | 111 | 8.0 | 12.0 | 0.00 | 0.00 | 0.00 | 70 | 1011.9 |
| 20260508220050 | 84 | 78 | 7.0 | 14.0 | 0.00 | 0.00 | 0.00 | 71 | 1012.0 |
| 20260508215534 | 84 | 76 | 8.0 | 14.0 | 0.00 | 0.00 | 0.00 | 71 | 1012.1 |
| 20260508215034 | 84 | 57 | 7.0 | 12.0 | 0.00 | 0.00 | 0.00 | 71 | 1012.0 |
| 20260508214606 | 84 | 101 | 7.0 | 14.0 | 0.00 | 0.00 | 0.00 | 70 | 1012.0 |
| 20260508214033 | 84 | 94 | 7.0 | 14.0 | 0.00 | 0.00 | 0.00 | 72 | 1012.1 |